Regional Weather Roundup
Issued by NWS

Home | Current Version | Previous Version | Graphics & Text | Print | Product List | Glossary On
Versions: 1 2 3 4 5 6 7 8 9 10 11 12 13 14 15 16 17 18 19 20 21 22 23 24 25 26 27 28 29 30 31 32 33 34 35 36 37 38 39 40 41 42 43 44 45 46 47 48 49 50
000
ASUS45 KSLC 012110
RWRUT

UTAH REGIONAL WEATHER ROUNDUP
NATIONAL WEATHER SERVICE SALT LAKE CITY UT
300 PM MDT MON JUN 01 2015

UTZ001>011-023>025-012200-

NORTHERN UTAH

CITY           SKY/WX    TMP DP  RH WIND       PRES   REMARKS
BRIGHAM CITY   PTSUNNY   85  37  17 S14       29.84F
HILL AFB       NOT AVBL
LOGAN          SUNNY     84  41  21 SW18G26   29.85F
OGDEN          PTSUNNY   85  35  16 SW20G28   29.85F
PROVO AIRPORT  MOSUNNY   88  41  19 SW14      29.89F
SALT LAKE CITY PTSUNNY   92  33  12 S23G35    29.83F
VERNAL         SUNNY     85  36  17 S14G22    29.95F
WENDOVER       CLOUDY    84  28  13 W24G30    29.80S
HEBER CITY     PTSUNNY   81  32  17 SW17G25   29.96S
WEST JORDAN    SUNNY     88  34  14 S20G36    29.87F

$$

UTZ012>022-026-027-012200-

SOUTHERN/CENTRAL UTAH

CITY           SKY/WX    TMP DP  RH WIND       PRES   REMARKS
BLANDING       MOSUNNY   85  31  14 SW15G23   30.13F
BRYCE CANYON   SUNNY     75  28  17 S12G28    30.19F
CEDAR CITY     SUNNY     83  28  13 SW26G35   30.01F
DELTA          SUNNY     88  27  11 SW24G36   29.91F
HANKSVILLE     SUNNY     93  27   9 W23G41    29.92F
MILFORD        SUNNY     86  30  13 SW25G38   29.94F
MOAB/CYNLANDS  SUNNY     94  28   9 SW22G36   29.89F
PRICE          MOSUNNY   87  26  11 S14G25    29.99F
ST GEORGE      MOCLDY    97  34  11 SW24      29.86F HX  91
KANAB          SUNNY     88  27  11 S20       30.03F

$$

REGIONAL REPORTS     COLORADO/ARIZONA

CITY           SKY/WX    TMP DP  RH WIND       PRES   REMARKS
CRAIG, CO      PTSUNNY   77  49  37 VRB3      30.05F
GRAND JUNCTION MOSUNNY   87  39  18 VRB3      29.95F
RIFLE          PTSUNNY   84  40  21 VRB3      30.00F
MONTROSE       MOSUNNY   88  32  13 SW17G26   30.06F
CORTEZ         SUNNY     88  35  15 SW13G25   30.11F
PAGE, AZ       SUNNY     93  16   6 S13G20    29.93F
GRAND CANYON   SUNNY     80  21  11 SW14G26   30.17F
KINGMAN        SUNNY     93  21   7 SW25      29.97F
FLAGSTAFF      SUNNY     76  18  11 SW22G30   30.22F

$$

REGIONAL REPORTS    NEVADA/IDAHO/WYOMING

CITY           SKY/WX    TMP DP  RH WIND       PRES   REMARKS
LAS VEGAS, NV  PTSUNNY   95  15   5 S17G25    29.80F
ELY            MOSUNNY   81  36  19 S22G29    29.97F
ELKO           SUNNY     77  34  21 VRB7      29.92F
POCATELLO, ID  MOSUNNY   77  52  41 W18       29.89F
BURLEY         PTSUNNY   69  45  41 NW23G37   29.92R
EVANSTON, WY   MOSUNNY   76  32  20 SW24G32   30.04F
ROCK SPRINGS   MOSUNNY   81  34  18 SW26G38   30.02F
KEMMERER       MOSUNNY   77  28  16 SW22G31   30.06F

$$


USA.gov is the U.S. government's official web portal to all federal, state and local government web resources and services.